TimeMST,TemperatureF,Dew PointF,Humidity,Sea Level PressureIn,VisibilityMPH,Wind Direction,Wind SpeedMPH,Gust SpeedMPH,PrecipitationIn,Events,Conditions,WindDirDegrees,DateUTC
12:53 AM,48.9,30.9,50,30.00,10.0,North,6.9,-,N/A,,Clear,10,2014-01-05 07:53:00
1:53 AM,50.0,28.9,44,30.01,10.0,NNE,8.1,-,N/A,,Clear,30,2014-01-05 08:53:00
2:53 AM,46.0,27.0,47,30.02,10.0,NNE,9.2,-,N/A,,Clear,20,2014-01-05 09:53:00
3:53 AM,48.9,18.0,29,30.03,10.0,Calm,Calm,-,N/A,,Clear,0,2014-01-05 10:53:00
4:53 AM,48.9,10.0,21,30.04,10.0,NE,10.4,-,N/A,,Clear,40,2014-01-05 11:53:00
5:53 AM,48.0,8.1,20,30.06,10.0,ENE,10.4,-,N/A,,Clear,70,2014-01-05 12:53:00
6:53 AM,44.1,10.0,25,30.09,10.0,NE,4.6,-,N/A,,Clear,50,2014-01-05 13:53:00
7:53 AM,46.9,7.0,20,30.11,10.0,East,4.6,-,N/A,,Clear,100,2014-01-05 14:53:00
8:53 AM,48.0,12.0,24,30.14,10.0,Calm,Calm,-,N/A,,Clear,0,2014-01-05 15:53:00
9:53 AM,54.0,9.0,17,30.15,10.0,East,4.6,-,N/A,,Clear,80,2014-01-05 16:53:00
10:53 AM,57.9,9.0,14,30.15,10.0,East,5.8,-,N/A,,Clear,100,2014-01-05 17:53:00
11:53 AM,60.1,12.9,16,30.13,10.0,SE,4.6,-,N/A,,Clear,130,2014-01-05 18:53:00
12:53 PM,60.1,18.0,20,30.09,10.0,SSW,5.8,-,N/A,,Clear,210,2014-01-05 19:53:00
1:53 PM,60.1,15.1,17,30.07,10.0,Variable,4.6,-,N/A,,Clear,0,2014-01-05 20:53:00
2:53 PM,61.0,12.0,15,30.07,10.0,Variable,4.6,-,N/A,,Clear,0,2014-01-05 21:53:00
3:53 PM,62.1,10.0,13,30.07,10.0,WSW,4.6,-,N/A,,Clear,250,2014-01-05 22:53:00
4:53 PM,61.0,10.0,13,30.08,10.0,WNW,4.6,-,N/A,,Clear,290,2014-01-05 23:53:00
5:53 PM,57.9,12.0,16,30.10,10.0,Calm,Calm,-,N/A,,Clear,0,2014-01-06 00:53:00
6:53 PM,48.9,19.9,32,30.12,10.0,Calm,Calm,-,N/A,,Clear,0,2014-01-06 01:53:00
7:53 PM,46.0,19.9,35,30.14,10.0,Calm,Calm,-,N/A,,Clear,0,2014-01-06 02:53:00
8:53 PM,50.0,16.0,26,30.15,10.0,NNE,12.7,-,N/A,,Clear,30,2014-01-06 03:53:00
9:53 PM,50.0,15.1,25,30.16,10.0,NNE,11.5,-,N/A,,Clear,30,2014-01-06 04:53:00
10:53 PM,50.0,12.9,23,30.17,10.0,NE,6.9,-,N/A,,Clear,40,2014-01-06 05:53:00
11:53 PM,52.0,1.9,13,30.17,10.0,NNE,5.8,-,N/A,,Clear,30,2014-01-06 06:53:00